QPF
0.00 0.00 0.00 0.00 0.00 0.00 0.00 0.00 0.00 0.00 0.00 0.00 0.00 0.00 0.00 0.01 0.01 0.01 0.02 0.04 0.04 0.04 0.04 0.05 0.07 0.10 0.22 0.28 0.21 0.17 0.15 0.11 0.12 0.11 0.08 0.06 0.04 0.04 0.03 0.03 0.02 0.02 0.02 0.01
0.00 0.00 0.00 0.00 0.00 0.00 0.00 0.00 0.00 0.00 0.00 0.00 0.00 0.00 0.00 0.01 0.01 0.02 0.02 0.02 0.03 0.03 0.04 0.08 0.10 0.12 0.20 0.32 0.25 0.17 0.15 0.12 0.09 0.07 0.07 0.09 0.08 0.07 0.06 0.06 0.04 0.03 0.02 0.02
0.00 0.00 0.00 0.00 0.00 0.00 0.00 0.00 0.00 0.00 0.00 0.00 0.00 0.00 0.00 0.01 0.01 0.01 0.01 0.01 0.02 0.02 0.03 0.07 0.13 0.15 0.16 0.23 0.23 0.17 0.15 0.13 0.10 0.08 0.09 0.10 0.10 0.09 0.08 0.06 0.05 0.03 0.02 0.02
0.00 0.00 0.00 0.00 0.00 0.00 0.00 0.00 0.00 0.00 0.00 0.00 0.00 0.00 0.00 0.01 0.00 0.01 0.01 0.01 0.02 0.03 0.04 0.05 0.08 0.10 0.10 0.13 0.14 0.13 0.13 0.13 0.10 0.09 0.08 0.06 0.06 0.05 0.04 0.04 0.04 0.03 0.03 0.03
0.00 0.00 0.00 0.00 0.00 0.00 0.00 0.00 0.00 0.00 0.00 0.00 0.00 0.00 0.00 0.01 0.01 0.01 0.01 0.01 0.01 0.02 0.03 0.05 0.05 0.05 0.06 0.10 0.11 0.12 0.13 0.13 0.10 0.08 0.06 0.07 0.06 0.05 0.06 0.06 0.06 0.05 0.04 0.04
0.00 0.00 0.00 0.00 0.00 0.00 0.00 0.00 0.00 0.00 0.00 0.00 0.00 0.00 0.00 0.00 0.01 0.01 0.01 0.01 0.02 0.03 0.04 0.06 0.08 0.09 0.10 0.11 0.12 0.14 0.14 0.14 0.11 0.08 0.07 0.06 0.06 0.06 0.06 0.04 0.04 0.04 0.03 0.02
0.00 0.00 0.00 0.00 0.00 0.00 0.00 0.00 0.00 0.00 0.00 0.00 0.00 0.00 0.00 0.00 0.00 0.00 0.01 0.01 0.02 0.04 0.05 0.06 0.07 0.10 0.16 0.20 0.20 0.18 0.16 0.12 0.09 0.08 0.07 0.06 0.06 0.06 0.05 0.05 0.05 0.04 0.03 0.01
0.00 0.00 0.00 0.00 0.00 0.00 0.00 0.00 0.00 0.00 0.00 0.00 0.00 0.00 0.00 0.00 0.00 0.00 0.01 0.01 0.02 0.03 0.04 0.06 0.08 0.13 0.17 0.21 0.19 0.18 0.16 0.14 0.10 0.08 0.08 0.10 0.08 0.07 0.07 0.07 0.07 0.06 0.04 0.03
0.00 0.00 0.00 0.00 0.00 0.00 0.00 0.00 0.00 0.00 0.00 0.00 0.00 0.00 0.00 0.00 0.00 0.00 0.01 0.01 0.03 0.04 0.04 0.05 0.07 0.11 0.12 0.13 0.14 0.13 0.12 0.12 0.11 0.08 0.10 0.10 0.09 0.08 0.08 0.09 0.09 0.09 0.07 0.07
0.00 0.00 0.00 0.00 0.00 0.00 0.00 0.00 0.00 0.00 0.00 0.00 0.00 0.00 0.00 0.00 0.00 0.00 0.01 0.01 0.03 0.04 0.03 0.03 0.04 0.07 0.09 0.11 0.14 0.11 0.11 0.09 0.09 0.08 0.07 0.10 0.09 0.07 0.08 0.09 0.09 0.07 0.07 0.07
0.00 0.00 0.00 0.00 0.00 0.00 0.00 0.00 0.00 0.00 0.00 0.00 0.00 0.00 0.00 0.00 0.00 0.00 0.00 0.01 0.04 0.05 0.03 0.02 0.03 0.05 0.07 0.10 0.14 0.11 0.09 0.09 0.08 0.08 0.07 0.08 0.09 0.09 0.08 0.08 0.08 0.06 0.05 0.05
0.00 0.00 0.00 0.00 0.00 0.00 0.00 0.00 0.00 0.00 0.00 0.00 0.00 0.00 0.00 0.00 0.00 0.00 0.00 0.01 0.04 0.07 0.05 0.04 0.03 0.03 0.05 0.11 0.14 0.12 0.10 0.08 0.06 0.07 0.06 0.06 0.08 0.08 0.07 0.06 0.07 0.07 0.05 0.05
0.00 0.00 0.00 0.00 0.00 0.00 0.00 0.00 0.00 0.00 0.00 0.00 0.00 0.00 0.00 0.01 0.00 0.01 0.01 0.01 0.01 0.02 0.03 0.03 0.03 0.02 0.04 0.11 0.16 0.12 0.09 0.07 0.06 0.06 0.05 0.06 0.08 0.08 0.05 0.05 0.07 0.07 0.06 0.06
0.00 0.00 0.00 0.00 0.00 0.00 0.00 0.00 0.00 0.00 0.00 0.00 0.00 0.00 0.00 0.00 0.00 0.01 0.01 0.01 0.01 0.01 0.01 0.02 0.02 0.03 0.05 0.08 0.14 0.11 0.08 0.07 0.07 0.06 0.06 0.06 0.06 0.05 0.05 0.07 0.09 0.09 0.07 0.07
0.00 0.00 0.00 0.00 0.00 0.00 0.00 0.00 0.00 0.00 0.00 0.00 0.00 0.00 0.00 0.00 0.01 0.02 0.04 0.02 0.02 0.02 0.03 0.04 0.03 0.05 0.05 0.06 0.07 0.08 0.07 0.06 0.05 0.05 0.05 0.04 0.06 0.07 0.07 0.09 0.09 0.09 0.09 0.08
0.01 0.00 0.01 0.01 0.00 0.00 0.00 0.00 0.00 0.00 0.00 0.00 0.00 0.00 0.00 0.00 0.02 0.02 0.02 0.02 0.03 0.05 0.05 0.07 0.05 0.03 0.03 0.04 0.04 0.04 0.04 0.03 0.04 0.05 0.06 0.06 0.06 0.07 0.07 0.08 0.08 0.09 0.10 0.10
0.01 0.01 0.01 0.01 0.01 0.00 0.01 0.00 0.00 0.00 0.00 0.00 0.00 0.00 0.00 0.00 0.01 0.01 0.01 0.02 0.04 0.07 0.06 0.06 0.05 0.03 0.02 0.02 0.02 0.02 0.03 0.03 0.04 0.05 0.06 0.05 0.05 0.05 0.05 0.05 0.05 0.06 0.06 0.07
0.01 0.01 0.00 0.01 0.00 0.01 0.01 0.01 0.01 0.00 0.00 0.00 0.00 0.00 0.00 0.01 0.01 0.02 0.02 0.03 0.04 0.04 0.03 0.03 0.03 0.03 0.03 0.02 0.01 0.02 0.02 0.02 0.03 0.04 0.05 0.04 0.03 0.02 0.02 0.03 0.02 0.02 0.02 0.01
0.01 0.01 0.01 0.01 0.01 0.01 0.01 0.02 0.02 0.01 0.01 0.00 0.00 0.00 0.00 0.00 0.03 0.03 0.03 0.03 0.02 0.02 0.02 0.02 0.02 0.03 0.03 0.02 0.02 0.03 0.03 0.02 0.02 0.02 0.04 0.05 0.04 0.03 0.02 0.02 0.02 0.02 0.02 0.02
0.01 0.01 0.01 0.01 0.01 0.01 0.01 0.01 0.02 0.01 0.02 0.01 0.01 0.00 0.00 0.03 0.04 0.05 0.05 0.04 0.03 0.02 0.02 0.02 0.03 0.03 0.03 0.03 0.04 0.04 0.04 0.03 0.03 0.04 0.05 0.05 0.05 0.05 0.04 0.04 0.03 0.03 0.03 0.03
0.02 0.02 0.02 0.02 0.02 0.01 0.01 0.01 0.01 0.01 0.01 0.01 0.01 0.02 0.04 0.05 0.03 0.04 0.05 0.05 0.03 0.02 0.02 0.02 0.03 0.04 0.04 0.07 0.07 0.04 0.05 0.04 0.04 0.04 0.04 0.03 0.04 0.05 0.07 0.08 0.06 0.05 0.05 0.07
0.02 0.02 0.02 0.02 0.02 0.01 0.01 0.01 0.02 0.02 0.02 0.03 0.03 0.04 0.05 0.04 0.02 0.03 0.03 0.04 0.03 0.03 0.02 0.02 0.03 0.05 0.04 0.03 0.04 0.04 0.04 0.05 0.06 0.05 0.04 0.03 0.04 0.06 0.08 0.10 0.09 0.09 0.08 0.08
0.04 0.03 0.03 0.02 0.02 0.02 0.02 0.02 0.02 0.03 0.04 0.06 0.07 0.06 0.04 0.03 0.03 0.03 0.03 0.03 0.02 0.02 0.02 0.03 0.05 0.07 0.06 0.04 0.04 0.04 0.06 0.06 0.05 0.05 0.05 0.05 0.06 0.07 0.08 0.09 0.12 0.15 0.14 0.12
0.03 0.04 0.04 0.03 0.03 0.03 0.04 0.04 0.06 0.09 0.08 0.07 0.08 0.07 0.04 0.03 0.03 0.02 0.02 0.02 0.02 0.02 0.02 0.03 0.04 0.08 0.09 0.07 0.05 0.05 0.09 0.09 0.09 0.08 0.08 0.08 0.09 0.09 0.10 0.09 0.11 0.13 0.15 0.15
0.04 0.05 0.05 0.04 0.05 0.05 0.05 0.06 0.07 0.08 0.08 0.07 0.08 0.07 0.04 0.03 0.02 0.02 0.01 0.02 0.02 0.02 0.02 0.03 0.04 0.05 0.06 0.07 0.07 0.08 0.10 0.10 0.10 0.11 0.09 0.07 0.09 0.09 0.10 0.09 0.08 0.09 0.12 0.14
0.05 0.05 0.05 0.07 0.06 0.06 0.07 0.07 0.07 0.06 0.05 0.06 0.07 0.06 0.04 0.03 0.01 0.01 0.01 0.02 0.03 0.03 0.03 0.04 0.05 0.05 0.06 0.08 0.08 0.08 0.08 0.08 0.09 0.10 0.09 0.08 0.08 0.09 0.09 0.10 0.10 0.10 0.09 0.11
MSLP
1006.96 1007.67 1008.17 1008.45 1008.56 1008.53 1008.43 1008.32 1008.22 1008.15 1008.09 1008.01 1007.87 1007.66 1007.38 1007.05 1006.70 1006.38 1006.14 1006.02 1006.03 1006.18 1006.44 1006.79 1007.18 1007.58 1007.99 1008.39 1008.79 1009.21 1009.67 1010.17 1010.71 1011.29 1011.87 1012.44 1012.97 1013.45 1013.87 1014.23 1014.56 1014.88 1015.19 1015.52
1007.24 1007.81 1008.16 1008.32 1008.34 1008.30 1008.27 1008.29 1008.38 1008.51 1008.63 1008.68 1008.62 1008.41 1008.05 1007.59 1007.07 1006.57 1006.16 1005.89 1005.79 1005.85 1006.04 1006.34 1006.69 1007.06 1007.44 1007.82 1008.23 1008.67 1009.18 1009.75 1010.38 1011.04 1011.70 1012.34 1012.90 1013.39 1013.79 1014.14 1014.44 1014.74 1015.06 1015.40
1007.25 1007.69 1007.91 1007.98 1007.96 1007.96 1008.05 1008.24 1008.53 1008.86 1009.15 1009.32 1009.30 1009.06 1008.60 1007.99 1007.30 1006.63 1006.06 1005.66 1005.45 1005.44 1005.59 1005.85 1006.17 1006.52 1006.88 1007.25 1007.66 1008.13 1008.68 1009.31 1010.02 1010.77 1011.51 1012.20 1012.82 1013.32 1013.73 1014.06 1014.35 1014.64 1014.95 1015.31
1007.00 1007.31 1007.44 1007.46 1007.47 1007.57 1007.81 1008.21 1008.71 1009.23 1009.67 1009.92 1009.91 1009.60 1009.03 1008.25 1007.39 1006.55 1005.84 1005.34 1005.06 1005.02 1005.15 1005.41 1005.73 1006.07 1006.42 1006.77 1007.17 1007.63 1008.20 1008.87 1009.63 1010.44 1011.25 1012.01 1012.67 1013.21 1013.63 1013.97 1014.25 1014.54 1014.85 1015.22
1006.53 1006.74 1006.81 1006.85 1006.95 1007.20 1007.64 1008.25 1008.97 1009.66 1010.22 1010.51 1010.46 1010.06 1009.34 1008.39 1007.36 1006.38 1005.56 1004.99 1004.70 1004.65 1004.81 1005.10 1005.44 1005.78 1006.11 1006.44 1006.80 1007.24 1007.78 1008.45 1009.22 1010.06 1010.91 1011.71 1012.42 1013.00 1013.46 1013.81 1014.11 1014.40 1014.73 1015.11
1005.95 1006.07 1006.13 1006.23 1006.46 1006.90 1007.56 1008.40 1009.31 1010.15 1010.78 1011.07 1010.96 1010.43 1009.55 1008.44 1007.26 1006.16 1005.28 1004.68 1004.40 1004.40 1004.62 1004.96 1005.33 1005.68 1005.99 1006.28 1006.58 1006.94 1007.42 1008.04 1008.78 1009.60 1010.47 1011.30 1012.04 1012.67 1013.17 1013.56 1013.89 1014.21 1014.56 1014.96
1005.34 1005.40 1005.48 1005.67 1006.06 1006.71 1007.59 1008.63 1009.71 1010.66 1011.32 1011.58 1011.36 1010.70 1009.67 1008.41 1007.11 1005.94 1005.02 1004.44 1004.21 1004.29 1004.58 1004.99 1005.40 1005.76 1006.05 1006.27 1006.48 1006.74 1007.12 1007.64 1008.30 1009.08 1009.92 1010.75 1011.53 1012.20 1012.75 1013.20 1013.59 1013.96 1014.34 1014.77
1004.81 1004.83 1004.94 1005.23 1005.78 1006.61 1007.68 1008.88 1010.08 1011.08 1011.74 1011.93 1011.61 1010.82 1009.66 1008.29 1006.92 1005.71 1004.81 1004.28 1004.13 1004.29 1004.67 1005.15 1005.60 1005.96 1006.21 1006.36 1006.47 1006.61 1006.86 1007.25 1007.81 1008.51 1009.30 1010.12 1010.91 1011.63 1012.24 1012.76 1013.22 1013.64 1014.08 1014.55
1004.44 1004.42 1004.55 1004.92 1005.59 1006.56 1007.75 1009.06 1010.30 1011.31 1011.92 1012.04 1011.63 1010.73 1009.49 1008.07 1006.67 1005.48 1004.62 1004.17 1004.11 1004.37 1004.83 1005.36 1005.84 1006.20 1006.40 1006.48 1006.48 1006.50 1006.61 1006.88 1007.32 1007.93 1008.66 1009.45 1010.25 1011.00 1011.68 1012.27 1012.80 1013.30 1013.79 1014.31
1004.25 1004.19 1004.33 1004.74 1005.47 1006.49 1007.73 1009.05 1010.28 1011.23 1011.77 1011.81 1011.32 1010.38 1009.11 1007.69 1006.34 1005.21 1004.45 1004.09 1004.11 1004.45 1004.97 1005.54 1006.03 1006.37 1006.54 1006.55 1006.47 1006.39 1006.39 1006.54 1006.87 1007.39 1008.06 1008.82 1009.62 1010.40 1011.12 1011.78 1012.38 1012.95 1013.50 1014.07
1004.25 1004.14 1004.25 1004.65 1005.37 1006.36 1007.54 1008.79 1009.92 1010.77 1011.22 1011.18 1010.66 1009.72 1008.49 1007.16 1005.91 1004.91 1004.25 1003.99 1004.10 1004.49 1005.04 1005.62 1006.11 1006.43 1006.56 1006.53 1006.40 1006.25 1006.18 1006.26 1006.52 1006.97 1007.58 1008.31 1009.09 1009.88 1010.64 1011.34 1012.00 1012.62 1013.23 1013.84
1004.40 1004.23 1004.29 1004.63 1005.25 1006.12 1007.17 1008.25 1009.22 1009.93 1010.28 1010.18 1009.66 1008.79 1007.68 1006.49 1005.41 1004.56 1004.04 1003.88 1004.05 1004.47 1005.02 1005.57 1006.04 1006.33 1006.45 1006.40 1006.26 1006.11 1006.02 1006.07 1006.29 1006.70 1007.27 1007.96 1008.72 1009.50 1010.26 1010.99 1011.68 1012.33 1012.97 1013.60
1004.65 1004.43 1004.41 1004.64 1005.11 1005.80 1006.63 1007.49 1008.25 1008.79 1009.02 1008.89 1008.42 1007.66 1006.72 1005.74 1004.87 1004.21 1003.84 1003.77 1003.98 1004.39 1004.91 1005.42 1005.83 1006.11 1006.22 1006.19 1006.09 1005.97 1005.91 1005.98 1006.21 1006.60 1007.14 1007.79 1008.51 1009.26 1010.01 1010.73 1011.42 1012.08 1012.72 1013.35
1004.94 1004.68 1004.57 1004.66 1004.95 1005.41 1005.98 1006.58 1007.10 1007.46 1007.58 1007.44 1007.04 1006.44 1005.72 1004.98 1004.35 1003.89 1003.66 1003.68 1003.91 1004.29 1004.74 1005.18 1005.55 1005.79 1005.92 1005.94 1005.90 1005.86 1005.89 1006.02 1006.28 1006.68 1007.19 1007.80 1008.47 1009.17 1009.86 1010.54 1011.20 1011.84 1012.46 1013.08
1005.20 1004.91 1004.74 1004.69 1004.78 1005.00 1005.30 1005.62 1005.90 1006.08 1006.11 1005.97 1005.67 1005.25 1004.76 1004.29 1003.90 1003.64 1003.56 1003.64 1003.87 1004.20 1004.57 1004.93 1005.23 1005.45 1005.59 1005.68 1005.74 1005.81 1005.94 1006.16 1006.47 1006.89 1007.39 1007.96 1008.56 1009.18 1009.80 1010.42 1011.02 1011.61 1012.20 1012.78
1005.38 1005.09 1004.86 1004.70 1004.62 1004.61 1004.65 1004.71 1004.77 1004.78 1004.73 1004.61 1004.42 1004.19 1003.95 1003.73 1003.57 1003.51 1003.54 1003.68 1003.89 1004.15 1004.43 1004.70 1004.94 1005.14 1005.30 1005.46 1005.62 1005.81 1006.06 1006.37 1006.75 1007.19 1007.67 1008.18 1008.71 1009.25 1009.78 1010.32 1010.85 1011.39 1011.92 1012.46
1005.45 1005.18 1004.92 1004.68 1004.45 1004.25 1004.07 1003.92 1003.79 1003.67 1003.57 1003.47 1003.40 1003.34 1003.32 1003.33 1003.39 1003.49 1003.63 1003.80 1003.99 1004.18 1004.37 1004.55 1004.72 1004.90 1005.09 1005.30 1005.56 1005.86 1006.22 1006.62 1007.05 1007.50 1007.96 1008.42 1008.88 1009.32 1009.77 1010.22 1010.68 1011.16 1011.65 1012.14
1005.38 1005.14 1004.88 1004.58 1004.26 1003.93 1003.59 1003.28 1003.01 1002.80 1002.67 1002.61 1002.64 1002.75 1002.91 1003.13 1003.36 1003.60 1003.83 1004.02 1004.18 1004.31 1004.41 1004.51 1004.62 1004.77 1004.97 1005.24 1005.57 1005.96 1006.39 1006.85 1007.32 1007.77 1008.21 1008.61 1008.99 1009.36 1009.73 1010.11 1010.51 1010.93 1011.38 1011.84
1005.17 1004.96 1004.71 1004.40 1004.03 1003.62 1003.19 1002.79 1002.44 1002.18 1002.05 1002.04 1002.17 1002.41 1002.74 1003.11 1003.49 1003.83 1004.12 1004.33 1004.47 1004.54 1004.58 1004.60 1004.67 1004.78 1004.98 1005.27 1005.64 1006.07 1006.55 1007.04 1007.51 1007.95 1008.34 1008.69 1009.01 1009.32 1009.63 1009.96 1010.32 1010.71 1011.12 1011.55
1004.85 1004.66 1004.42 1004.12 1003.74 1003.31 1002.86 1002.42 1002.06 1001.80 1001.70 1001.75 1001.97 1002.32 1002.77 1003.27 1003.75 1004.18 1004.52 1004.74 1004.86 1004.89 1004.88 1004.85 1004.87 1004.95 1005.13 1005.41 1005.77 1006.21 1006.68 1007.15 1007.59 1007.99 1008.33 1008.63 1008.90 1009.16 1009.44 1009.74 1010.09 1010.47 1010.87 1011.29
1004.45 1004.26 1004.03 1003.75 1003.40 1003.00 1002.57 1002.17 1001.85 1001.64 1001.60 1001.73 1002.03 1002.47 1003.02 1003.60 1004.16 1004.65 1005.02 1005.26 1005.37 1005.38 1005.33 1005.27 1005.24 1005.28 1005.42 1005.65 1005.98 1006.36 1006.78 1007.19 1007.56 1007.90 1008.18 1008.42 1008.65 1008.88 1009.14 1009.45 1009.80 1010.19 1010.60 1011.01
1004.01 1003.79 1003.57 1003.32 1003.03 1002.70 1002.36 1002.05 1001.81 1001.70 1001.74 1001.95 1002.33 1002.85 1003.46 1004.11 1004.71 1005.24 1005.64 1005.89 1006.01 1006.02 1005.95 1005.86 1005.79 1005.78 1005.86 1006.02 1006.26 1006.55 1006.86 1007.16 1007.44 1007.68 1007.88 1008.07 1008.25 1008.47 1008.73 1009.06 1009.43 1009.85 1010.29 1010.71
1003.56 1003.31 1003.10 1002.90 1002.68 1002.46 1002.24 1002.05 1001.95 1001.96 1002.11 1002.42 1002.87 1003.45 1004.11 1004.78 1005.42 1005.96 1006.38 1006.65 1006.78 1006.79 1006.72 1006.61 1006.51 1006.45 1006.45 1006.51 1006.63 1006.79 1006.96 1007.12 1007.26 1007.38 1007.49 1007.60 1007.75 1007.95 1008.22 1008.57 1008.98 1009.44 1009.92 1010.36
1003.13 1002.86 1002.66 1002.52 1002.41 1002.31 1002.24 1002.22 1002.27 1002.43 1002.70 1003.10 1003.62 1004.24 1004.92 1005.61 1006.25 1006.80 1007.23 1007.51 1007.66 1007.69 1007.62 1007.51 1007.38 1007.26 1007.17 1007.12 1007.10 1007.10 1007.10 1007.09 1007.08 1007.06 1007.05 1007.09 1007.18 1007.37 1007.65 1008.02 1008.48 1008.98 1009.49 1009.97
1002.74 1002.46 1002.31 1002.24 1002.25 1002.31 1002.41 1002.57 1002.79 1003.09 1003.49 1003.98 1004.55 1005.20 1005.88 1006.56 1007.18 1007.72 1008.15 1008.45 1008.61 1008.67 1008.62 1008.51 1008.36 1008.19 1008.01 1007.84 1007.68 1007.50 1007.33 1007.14 1006.95 1006.79 1006.66 1006.61 1006.65 1006.80 1007.08 1007.48 1007.97 1008.51 1009.06 1009.59
1002.38 1002.14 1002.06 1002.10 1002.25 1002.48 1002.77 1003.10 1003.49 1003.94 1004.44 1005.00 1005.61 1006.26 1006.92 1007.57 1008.16 1008.68 1009.10 1009.40 1009.59 1009.67 1009.65 1009.55 1009.38 1009.17 1008.93 1008.65 1008.35 1008.02 1007.67 1007.31 1006.96 1006.65 1006.41 1006.27 1006.25 1006.38 1006.65 1007.05 1007.56 1008.13 1008.72 1009.28
Thickness
5743 5732 5727 5734 5741 5745 5746 5745 5744 5754 5770 5769 5764 5766 5775 5783 5784 5782 5782 5782 5783 5783 5782 5778 5775 5772 5767 5761 5758 5755 5751 5749 5746 5742 5740 5738 5737 5737 5736 5736 5736 5736 5735 5734
5726 5725 5739 5744 5744 5744 5743 5739 5741 5752 5765 5765 5759 5762 5772 5778 5782 5784 5783 5782 5783 5780 5777 5776 5773 5770 5767 5761 5757 5754 5751 5749 5747 5744 5742 5740 5738 5736 5735 5735 5734 5734 5734 5734
5723 5735 5745 5742 5738 5735 5736 5735 5740 5743 5753 5759 5755 5751 5761 5773 5779 5782 5783 5784 5784 5781 5778 5776 5773 5770 5765 5760 5757 5755 5751 5749 5746 5744 5740 5737 5734 5733 5732 5732 5732 5733 5733 5733
5723 5738 5741 5736 5736 5736 5728 5746 5746 5744 5735 5727 5742 5724 5749 5760 5767 5774 5777 5779 5781 5782 5779 5775 5773 5769 5766 5763 5759 5756 5751 5749 5746 5743 5739 5737 5734 5732 5733 5733 5732 5732 5732 5732
5720 5733 5734 5732 5739 5742 5739 5751 5747 5742 5731 5722 5728 5722 5734 5752 5757 5767 5775 5779 5781 5783 5781 5778 5775 5773 5769 5764 5760 5756 5752 5749 5746 5744 5741 5738 5736 5734 5733 5732 5730 5730 5730 5730
5725 5738 5740 5741 5749 5750 5749 5741 5731 5719 5713 5704 5720 5716 5725 5742 5757 5767 5774 5778 5781 5783 5782 5779 5776 5772 5767 5764 5760 5756 5752 5749 5747 5745 5742 5739 5736 5734 5731 5730 5728 5728 5728 5728
5714 5727 5740 5747 5738 5741 5737 5714 5694 5694 5686 5693 5718 5717 5726 5756 5766 5770 5773 5778 5781 5782 5780 5777 5774 5769 5765 5762 5760 5756 5752 5748 5746 5744 5742 5740 5738 5735 5734 5732 5730 5728 5726 5726
5695 5701 5728 5740 5736 5728 5725 5716 5692 5684 5684 5695 5712 5712 5736 5764 5770 5774 5776 5778 5779 5779 5779 5777 5774 5771 5766 5762 5759 5756 5752 5748 5746 5744 5742 5740 5738 5736 5735 5733 5731 5729 5728 5728
5692 5699 5732 5743 5747 5737 5719 5713 5719 5697 5694 5694 5702 5719 5742 5762 5764 5768 5771 5773 5774 5776 5777 5777 5775 5772 5768 5763 5759 5756 5752 5748 5746 5744 5742 5739 5738 5736 5734 5732 5731 5729 5728 5727
5704 5699 5721 5737 5740 5736 5732 5719 5701 5691 5680 5682 5701 5712 5723 5747 5754 5762 5765 5768 5771 5774 5775 5775 5774 5772 5769 5764 5760 5756 5752 5749 5746 5744 5742 5740 5737 5736 5733 5731 5729 5728 5727 5726
5706 5698 5708 5719 5720 5718 5716 5712 5702 5691 5692 5682 5685 5705 5743 5749 5756 5758 5763 5766 5768 5769 5772 5772 5772 5771 5768 5764 5759 5754 5751 5747 5745 5743 5741 5738 5736 5734 5732 5729 5728 5727 5726 5725
5700 5691 5688 5705 5725 5734 5727 5717 5705 5695 5690 5689 5689 5708 5753 5754 5757 5759 5762 5766 5768 5769 5769 5769 5769 5768 5765 5761 5757 5753 5750 5748 5746 5744 5741 5738 5735 5733 5731 5729 5728 5726 5725 5724
5696 5684 5676 5686 5702 5716 5718 5717 5714 5705 5692 5684 5687 5712 5749 5752 5755 5759 5761 5763 5764 5765 5765 5763 5763 5762 5761 5758 5754 5752 5750 5748 5746 5744 5740 5737 5734 5732 5730 5728 5727 5725 5724 5723
5701 5682 5680 5678 5689 5705 5710 5714 5713 5705 5690 5688 5699 5718 5737 5745 5749 5754 5757 5759 5760 5760 5759 5758 5756 5756 5756 5754 5752 5750 5748 5746 5745 5742 5739 5736 5734 5732 5730 5729 5727 5725 5724 5722
5692 5681 5688 5695 5706 5710 5714 5715 5713 5711 5708 5703 5711 5718 5734 5743 5748 5751 5753 5754 5754 5754 5754 5753 5751 5751 5751 5750 5748 5748 5746 5745 5743 5740 5738 5736 5734 5732 5730 5728 5726 5725 5723 5722
5678 5677 5684 5690 5702 5708 5708 5714 5715 5717 5716 5716 5719 5722 5739 5742 5745 5746 5747 5748 5748 5748 5750 5750 5749 5748 5748 5747 5746 5745 5744 5743 5742 5739 5737 5735 5733 5730 5729 5727 5725 5723 5721 5720
5666 5670 5671 5674 5690 5698 5692 5706 5712 5715 5719 5720 5717 5727 5735 5735 5737 5739 5742 5744 5744 5745 5747 5747 5747 5746 5746 5746 5745 5744 5743 5742 5739 5738 5736 5734 5732 5730 5728 5726 5724 5722 5720 5718
5661 5661 5659 5663 5676 5668 5692 5714 5718 5715 5717 5721 5724 5728 5731 5733 5735 5738 5740 5741 5742 5743 5744 5745 5746 5745 5744 5744 5744 5743 5741 5739 5738 5736 5734 5733 5731 5729 5727 5725 5723 5721 5719 5718
5660 5658 5653 5652 5658 5671 5693 5707 5711 5709 5709 5719 5720 5724 5727 5731 5731 5731 5737 5739 5741 5742 5742 5743 5744 5744 5743 5743 5742 5740 5738 5736 5735 5733 5732 5731 5730 5727 5725 5723 5722 5720 5718 5717
5652 5655 5651 5650 5655 5659 5685 5706 5714 5710 5701 5717 5719 5719 5722 5725 5717 5721 5732 5735 5737 5739 5739 5739 5740 5741 5740 5740 5739 5737 5735 5733 5732 5732 5732 5731 5730 5727 5725 5724 5722 5721 5719 5717
5641 5642 5645 5648 5653 5665 5689 5702 5708 5690 5699 5715 5717 5717 5717 5717 5718 5722 5727 5729 5731 5732 5734 5736 5736 5736 5736 5735 5735 5732 5731 5730 5731 5731 5730 5729 5728 5727 5726 5724 5722 5720 5717 5715
5635 5636 5639 5642 5647 5660 5687 5694 5692 5696 5706 5709 5710 5712 5712 5713 5715 5717 5719 5721 5723 5725 5727 5729 5729 5729 5730 5731 5730 5727 5727 5729 5728 5728 5727 5726 5725 5725 5724 5721 5719 5717 5715 5712
5631 5636 5639 5646 5653 5668 5679 5685 5692 5697 5700 5702 5704 5707 5709 5709 5709 5710 5711 5712 5715 5717 5719 5722 5723 5723 5723 5725 5725 5723 5724 5724 5724 5723 5723 5722 5722 5721 5720 5718 5716 5713 5711 5709
5629 5636 5639 5645 5655 5664 5673 5680 5687 5692 5695 5697 5700 5702 5703 5702 5702 5702 5703 5704 5706 5709 5711 5713 5715 5715 5715 5717 5718 5719 5719 5720 5719 5718 5718 5718 5717 5716 5716 5714 5712 5710 5707 5705
5624 5630 5635 5641 5649 5659 5666 5672 5678 5683 5687 5689 5692 5694 5694 5695 5695 5695 5696 5697 5699 5701 5703 5705 5706 5707 5708 5710 5711 5713 5714 5715 5714 5713 5712 5712 5712 5712 5710 5708 5706 5705 5704 5703
5620 5627 5632 5637 5646 5651 5656 5664 5671 5674 5677 5679 5681 5683 5684 5686 5686 5688 5688 5689 5691 5693 5695 5696 5697 5699 5700 5702 5704 5705 5707 5708 5708 5706 5706 5706 5706 5705 5703 5701 5698 5696 5697 5696